[Iaude] MPEC V59: 2023 VP1 [a=1.66,e=0.36,i=26.1,H=23.6]

mpec at marsden.cfa.harvard.edu mpec at marsden.cfa.harvard.edu
Sun Nov 5 20:21:11 EST 2023


M.P.E.C. 2023-V59                              Issued 2023 November 6, 01:19 UT

     The Minor Planet Electronic Circulars contain information on unusual
         minor planets, routine data on comets and natural satellites,
         and occasional editorial announcements.  They are published
    on behalf of Division F of the International Astronomical Union by the
          Minor Planet Center, Smithsonian Astrophysical Observatory,
                          Cambridge, MA 02138, U.S.A.
			  
             Prepared using the Tamkin Foundation Computer Network

                              MPC at CFA.HARVARD.EDU
            URL https://www.minorplanetcenter.net/    ISSN 1523-6714

                                    2023 VP1                                    


Observations:
     K23V01P*1C2023 11 03.18649123 06 48.712+24 55 33.06         20.38GVEV059G96
     K23V01P 1C2023 11 03.19165723 06 46.814+24 56 36.74         20.38GVEV059G96
     K23V01P 1C2023 11 03.19680723 06 44.932+24 57 41.04         20.29GVEV059G96
     K23V01P 1C2023 11 03.20195623 06 43.067+24 58 44.04         20.99GVEV059G96
     K23V01P KC2023 11 03.26966323 06 18.47 +25 12 30.8          20.4 GXEV059858
     K23V01P KC2023 11 03.27737523 06 15.79 +25 14 04.6          20.6 GXEV059858
     K23V01P  C2023 11 03.28045923 06 14.688+25 14 43.85         20.3 GVEV059H01
     K23V01P  C2023 11 03.28419123 06 13.371+25 15 29.40         20.1 GVEV059H01
     K23V01P KC2023 11 03.28451323 06 13.26 +25 15 31.7          21.0 GXEV059858
     K23V01P  C2023 11 03.29733623 06 08.755+25 18 09.22         20.9 GVEV059H01
     K23V01P  C2023 11 03.30092823 06 07.496+25 18 52.92         20.3 GVEV059H01
     K23V01P KC2023 11 03.31884123 06 01.325+25 22 33.71         20.36GVEV059I52
     K23V01P KC2023 11 03.32015123 06 00.860+25 22 49.44         20.34GVEV059I52
     K23V01P KC2023 11 03.32279623 05 59.975+25 23 21.44         20.32GVEV059I52
     K23V01P KC2023 11 04.08813423 01 55.49 +27 54 52.0          20.6 GXEV059858
     K23V01P KC2023 11 04.09502023 01 53.09 +27 56 11.4          20.7 GXEV059858
     K23V01P KC2023 11 04.10209523 01 50.59 +27 57 32.2          20.5 GXEV059858
     K23V01P KC2023 11 04.11065923 01 47.986+27 59 13.49         20.95GVEV059I52
     K23V01P KC2023 11 04.11147923 01 47.716+27 59 22.96         20.86GVEV059I52
     K23V01P KC2023 11 04.11230023 01 47.456+27 59 32.71         20.74GVEV059I52
     K23V01P KC2023 11 04.11312023 01 47.132+27 59 41.64         20.66GVEV059I52
     K23V01P KC2023 11 05.96731 22 52 13.73 +33 23 55.4          20.9 GVEV059204
     K23V01P KC2023 11 05.98485 22 52 08.38 +33 26 40.5                VEV059204

Observer details:
204 Schiaparelli Observatory.  Observers L. Buzzi, G. Galli.  0.84-m f/3.5
    reflector + CCD.
858 Tebbutt Observatory, Edgewood.  Observer F. B. Zoltowski.  0.51-m f/8.1
    Schmidt-Cassegrain + CCD.
G96 Mt. Lemmon Survey.  Observer J. B. Fazekas.  Measurers E. C. Beshore, D.
    Fay, J. B. Fazekas, D. C. Fuls, A. R. Gibbs, A. D. Grauer, H. Groeller, J.
    K. Hogan, R. A. Kowalski, S. M. Larson, G. J. Leonard, D. Rankin, R. L.
    Seaman, F. C. Shelly, K. W. Wierzchos.  1.5-m reflector + 10K CCD.
H01 Magdalena Ridge Observatory, Socorro.  Observers W. H. Ryan, E. V. Ryan.
    Measurer W. H. Ryan.  2.4-m f/8.9 Ritchey-Chretien + CCD.
I52 Steward Observatory, Mt. Lemmon Station.  Observer D. Rankin.  Measurers
    E. C. Beshore, D. Fay, J. B. Fazekas, D. C. Fuls, A. R. Gibbs, A. D.
    Grauer, H. Groeller, J. K. Hogan, R. A. Kowalski, S. M. Larson, G. J.
    Leonard, D. Rankin, R. L. Seaman, F. C. Shelly, K. W. Wierzchos.  1.0-m
    prime focus + CCD.

Orbital elements:
2023 VP1                                                 Earth MOID = 0.0755 AU
Epoch 2023 Sept. 13.0 TT = JDT 2460200.5                Veres                   
M 337.03901              (2000.0)            P               Q                  
n   0.45987566     Peri.    5.11302     +0.81400162     -0.53525172             
a   1.6622988      Node    30.85538     +0.51612025     +0.48826889             
e   0.3567124      Incl.   26.09911     +0.26649812     +0.68927432             
P   2.14           H   23.69          G   0.15           U   8                  
Residuals in seconds of arc
231103 G96  0.2+  0.1+    231103 858  0.1+  0.1+    231104 858  0.2-  0.2-
231103 G96  0.0   0.2-    231103 H01  0.0   0.0     231104 I52  0.3-  0.1-
231103 G96  0.1-  0.4+    231103 H01  0.0   0.0     231104 I52  0.1-  0.1-
231103 G96  0.0   0.2-    231103 I52  0.2-  0.1+    231104 I52  0.3+  0.3+
231103 858  0.3-  0.2+    231103 I52  0.3-  0.0     231104 I52  0.2-  0.2-
231103 858  0.3+  0.0     231103 I52  0.2+  0.1-    231105 204  0.3+  0.5+
231103 H01  0.1+  0.1-    231104 858  0.1+  0.2+    231105 204  0.2+  0.3-
231103 H01  0.0   0.0     231104 858  0.2+  0.4+

Ephemeris:
2023 VP1                 a,e,i = 1.66, 0.36, 26                  q = 1.0693
Date    TT    R. A. (2000) Decl.     Delta      r    Elong.  Phase     V
2023 10 07    02 16 13.8 -56 42 14   0.1976  1.0995   115.6    55.1    22.4
...
2023 10 22    00 30 25.3 -28 28 45   0.1054  1.0748   136.9    39.2    20.5
...
2023 10 30    23 32 16.8 +07 58 06   0.09774 1.0697   139.8    36.8    20.3
...
2023 11 05    22 57 07.7 +30 41 56   0.1212  1.0698   127.5    47.4    21.0
2023 11 06    22 52 07.7 +33 29 28   0.1268  1.0701   125.5    48.9    21.2
2023 11 07    22 47 22.5 +36 01 45   0.1326  1.0705   123.7    50.4    21.3
...
2023 11 13    22 23 52.1 +47 06 08   0.1724  1.0749   115.3    56.3    22.1
...
2023 11 21    22 04 24.2 +55 18 53   0.2312  1.0859   109.1    59.3    22.8
...
2023 12 06    21 55 20.3 +63 16 21   0.3430  1.1205   104.3    58.5    23.7

M. P. C. Staff               (C) Copyright 2023 MPC           M.P.E.C. 2023-V59




More information about the Iaude mailing list